Weather History for KUGN - September, 2013

Change the Weather History Date:

Friday, September 13, 2013

  Actual Average Record
Temperature  
Mean Temperature 55 °F -  
Max Temperature 63 °F 73 °F 93 °F (2005)
Min Temperature 46 °F 54 °F 39 °F (2014)
Degree Days  
Heating Degree Days 10 3  
Month to date heating degree days 17 27  
Since 1 July heating degree days 56 55  
Cooling Degree Days 0 2  
Month to date cooling degree days 77 39  
Year to date cooling degree days 567 541  
Growing Degree Days 4 (Base 50)    
Moisture  
Dew Point 44 °F    
Average Humidity 72    
Maximum Humidity 93    
Minimum Humidity 51    
Precipitation  
Precipitation 0.00 in 0.12 in 2.75 in (2008)
Month to date precipitation 0.26 1.32  
Year to date precipitation 22.10 25.77  
Sea Level Pressure  
Sea Level Pressure 30.15 in    
Wind  
Wind Speed 8 mph (NNW)    
Max Wind Speed 17 mph    
Max Gust Speed 25 mph    
Visibility 10 miles    
Events      
T = Trace of Precipitation, MM = Missing Value Source: NWS Daily Summary

Daily Weather History Graph

Daily Weather History Graph

Search for Another Location

Airport or City:

Trip Planner

Search our weather history database for the weather conditions in past years. The results will help you decide how hot, cold, wet, or windy it might be!

Date:

Astronomy

Sep. 13, 2013 Rise Set
Actual Time 6:29 AM CDT 7:04 PM CDT
Civil Twilight 6:01 AM CDT 7:32 PM CDT
Nautical Twilight 5:27 AM CDT 8:05 PM CDT
Astronomical Twilight 4:53 AM CDT 8:40 PM CDT
Moon 2:58 PM CDT (9/13) No Moon Set
Length of Visible Light 13h 31m
Length of Day
12h 34m
First Quarter, 61% of the Moon is Illuminated
Sep 13
First Quarter
Sep 19
Full
Sep 26
Last Quarter
Oct 4
New
Oct 11
First Quarter

Hourly Weather History & Observations

Time (CDT) Temp. Dew Point Humidity Pressure Visibility Wind Dir Wind Speed Gust Speed Precip Events Conditions
12:52 AM 57.9 °F 48.9 °F 72% 30.09 in 10.0 mi NNW 8.1 mph - N/A   Scattered Clouds
1:52 AM 55.9 °F 44.1 °F 64% 30.09 in 10.0 mi NNW 6.9 mph - N/A   Scattered Clouds
2:52 AM 54.0 °F 44.1 °F 69% 30.11 in 10.0 mi NNW 11.5 mph 16.1 mph N/A   Clear
3:52 AM 52.0 °F 43.0 °F 71% 30.11 in 10.0 mi NNW 8.1 mph 16.1 mph N/A   Clear
4:52 AM 50.0 °F 42.1 °F 74% 30.12 in 10.0 mi NNW 8.1 mph - N/A   Clear
5:52 AM 48.0 °F 42.1 °F 80% 30.14 in 10.0 mi NW 5.8 mph - N/A   Clear
6:52 AM 48.0 °F 42.1 °F 80% 30.15 in 10.0 mi NW 5.8 mph - N/A   Partly Cloudy
7:52 AM 51.1 °F 43.0 °F 74% 30.15 in 10.0 mi NNW 10.4 mph 16.1 mph N/A   Clear
8:52 AM 54.0 °F 44.1 °F 69% 30.16 in 10.0 mi Variable 6.9 mph 16.1 mph N/A   Clear
9:52 AM 57.9 °F 46.0 °F 65% 30.18 in 10.0 mi NNW 6.9 mph 17.3 mph N/A   Clear
10:52 AM 60.1 °F 46.0 °F 60% 30.18 in 10.0 mi NNW 9.2 mph 20.7 mph N/A   Mostly Cloudy
11:09 AM 60.8 °F 44.6 °F 55% 30.19 in 10.0 mi NNW 9.2 mph 18.4 mph N/A   Mostly Cloudy
11:52 AM 60.1 °F 44.1 °F 55% 30.17 in 10.0 mi North 10.4 mph 19.6 mph N/A   Scattered Clouds
12:52 PM 61.0 °F 45.0 °F 56% 30.17 in 10.0 mi NNE 10.4 mph 19.6 mph N/A   Scattered Clouds
1:52 PM 62.1 °F 44.1 °F 52% 30.16 in 10.0 mi North 10.4 mph 18.4 mph N/A   Scattered Clouds
2:52 PM 61.0 °F 44.1 °F 54% 30.16 in 10.0 mi North 12.7 mph 18.4 mph N/A   Scattered Clouds
3:52 PM 61.0 °F 42.1 °F 50% 30.15 in 10.0 mi NNE 12.7 mph 20.7 mph N/A   Clear
4:52 PM 60.1 °F 44.1 °F 55% 30.15 in 10.0 mi NNE 10.4 mph 18.4 mph N/A   Clear
5:52 PM 59.0 °F 44.1 °F 58% 30.15 in 10.0 mi North 12.7 mph 19.6 mph N/A   Clear
6:52 PM 57.0 °F 45.0 °F 64% 30.15 in 10.0 mi NNE 8.1 mph - N/A   Clear
7:52 PM 53.1 °F 46.0 °F 77% 30.16 in 10.0 mi Calm Calm - N/A   Clear
8:52 PM 50.0 °F 46.0 °F 86% 30.17 in 10.0 mi Calm Calm - N/A   Clear
9:52 PM 50.0 °F 46.0 °F 86% 30.16 in 10.0 mi NW 3.5 mph - N/A   Clear
10:52 PM 46.9 °F 45.0 °F 93% 30.15 in 10.0 mi NW 3.5 mph - N/A   Clear
11:52 PM 48.0 °F 45.0 °F 89% 30.15 in 10.0 mi NW 3.5 mph - N/A   Clear